Regional Weather Roundup
Issued by NWS Little Rock, AR

Home | Current Version | Previous Version | Graphics & Text | Print | Product List | Glossary On
Versions: 1 2 3 4 5 6 7 8 9 10 11 12 13 14 15 16 17 18 19 20 21 22 23 24 25 26 27
000
ASUS44 KLZK 271805
RWRLZK

WEATHER ROUNDUP FOR ARKANSAS
NATIONAL WEATHER SERVICE LITTLE ROCK AR
100 PM CDT FRI MAY 27 2016

NOTE: "FAIR" INDICATES FEW OR NO CLOUDS BELOW 12,000 FEET WITH NO
SIGNIFICANT WEATHER AND/OR OBSTRUCTIONS TO VISIBILITY.

ARZ001-003-010-029-271900-
NORTHWEST ARKANSAS

CITY           SKY/WX    TMP DP  RH WIND       PRES   REMARKS
FAYETTEVILLE   CLOUDY    71  66  84 SE7       29.76F
6HR MIN TEMP:  69; 6HR MAX TEMP:  72; 6HR PCP:  0.02;

FORT SMITH     CLOUDY    78  66  66 SE13G20   29.76R
6HR MIN TEMP:  70; 6HR MAX TEMP:  79; 6HR PCP:  0.03;

HARRISON       LGT RAIN  72  66  81 S8G20     29.83S
6HR MIN TEMP:  68; 6HR MAX TEMP:  74; 6HR PCP: TRACE;

BENTONVILLE    CLOUDY    72  63  73 SE9       29.78F
6HR MIN TEMP:  66; 6HR MAX TEMP:  73;

ROGERS         LGT RAIN  70  66  87 SE8       29.79F
6HR MIN TEMP:  65; 6HR MAX TEMP:  74; 6HR PCP: TRACE;

SILOAM SPGS    CLOUDY    70  61  73 SE12G17   29.77S
6HR MIN TEMP:  66; 6HR MAX TEMP:  73;

HIGHFILL       LGT RAIN  71  67  87 SE8       29.77F
6HR MIN TEMP:  67; 6HR MAX TEMP:  74; 6HR PCP: TRACE;

SPRINGDALE     CLOUDY    70  66  88 SE7G14    29.79F
$$

ARZ004-005-016-271900-
NORTH CENTRAL ARKANSAS

CITY           SKY/WX    TMP DP  RH WIND       PRES   REMARKS
BATESVILLE     CLOUDY    73  70  88 SW13      29.85F
6HR MIN TEMP:  72; 6HR MAX TEMP:  79; 6HR PCP:  0.08;

FLIPPIN        CLOUDY   N/A N/A N/A SW12G17   29.79F
MTN HOME       PTSUNNY   77  69  76 VRB6      29.81F
6HR MIN TEMP:  67; 6HR MAX TEMP:  77; 6HR PCP: TRACE;

$$

ARZ040-041-271900-
WEST CENTRAL ARKANSAS

CITY           SKY/WX    TMP DP  RH WIND       PRES   REMARKS
MENA           CLOUDY    75  68  78 S9G18     29.79F
MOUNT IDA      CLOUDY    75  67  76 CALM      29.81F
6HR MIN TEMP:  71; 6HR MAX TEMP:  75; 6HR PCP: TRACE;

$$

ARZ009-017-025-026-028-271900-
NORTHEAST ARKANSAS

CITY           SKY/WX    TMP DP  RH WIND       PRES   REMARKS
CORNING          N/A     75  75 100 S13       29.88F
JONESBORO      LGT RAIN  70  67  90 S13       29.90R FOG
6HR MIN TEMP:  70; 6HR MAX TEMP:  77; 6HR PCP:  0.07;

NEWPORT        CLOUDY    76  71  84 S15       29.88F
6HR MIN TEMP:  73; 6HR MAX TEMP:  78; 6HR PCP:  0.01;

WALNUT RIDGE   CLOUDY    75  66  73 S17       29.87F
6HR MIN TEMP:  70; 6HR MAX TEMP:  75; 6HR PCP:  0.01;

BLYTHEVILLE    CLOUDY    82  69  64 S18G30    29.91F HX  85
6HR MIN TEMP:  71; 6HR MAX TEMP:  83; 6HR PCP: TRACE;

NW BLYTHEVILLE PTSUNNY   82  72  69 S21G29    29.89F HX  87
$$

ARZ022-023-033-042-044-271900-
CENTRAL ARKANSAS

CITY           SKY/WX    TMP DP  RH WIND       PRES   REMARKS
LITTLE ROCK    PTSUNNY   79  68  69 S12       29.85F
6HR MIN TEMP:  73; 6HR MAX TEMP:  79; 6HR PCP: TRACE;

N LITTLE ROCK    N/A     77  69  77 S9G18     29.82F
6HR MIN TEMP:  72; 6HR MAX TEMP:  77;

JACKSONVILLE   PTSUNNY   76  74  92 S8        29.84F
6HR MIN TEMP:  73; 6HR MAX TEMP:  78; 6HR PCP:  0.07;

HOT SPRINGS    CLOUDY    76  68  76 S12       29.85F
6HR MIN TEMP:  72; 6HR MAX TEMP:  76; 6HR PCP: TRACE;

RUSSELLVILLE   PTSUNNY   75  69  81 SE7       29.81F
6HR MIN TEMP:  71; 6HR MAX TEMP:  76; 6HR PCP:  0.01;

CLINTON        LGT RAIN  75  72  88 S3        29.84F
$$

ARZ036-271900-
EAST ARKANSAS

CITY           SKY/WX    TMP DP  RH WIND       PRES   REMARKS
WEST MEMPHIS   CLOUDY    78  69  73 S20G26    29.91F
6HR MIN TEMP:  73; 6HR MAX TEMP:  79; 6HR PCP: TRACE;

$$

ARZ050-053-066-070-073-271900-
SOUTHWEST ARKANSAS

CITY           SKY/WX    TMP DP  RH WIND       PRES   REMARKS
ARKADELPHIA    FAIR      80  72  76 S7        29.85F
6HR MIN TEMP:  72; 6HR MAX TEMP:  80; 6HR PCP:  0.08;

CAMDEN         LGT RAIN  77  66  69 S6        29.87F
TEXARKANA      RAIN      70  67  90 S12       29.85F FOG
6HR MIN TEMP:  70; 6HR MAX TEMP:  76; 6HR PCP:  0.07;

EL DORADO      CLOUDY    76  68  76 W6        29.89F
6HR MIN TEMP:  70; 6HR MAX TEMP:  77; 6HR PCP:  0.14;

DE QUEEN       CLOUDY    72  67  84 S9G16     29.79F
6HR MIN TEMP:  70; 6HR MAX TEMP:  74; 6HR PCP:  0.01;

$$

ARZ056-057-069-271900-
SOUTHEAST ARKANSAS

CITY           SKY/WX    TMP DP  RH WIND       PRES   REMARKS
PINE BLUFF     RAIN      73  70  90 S6        29.86F FOG
6HR MIN TEMP:  73; 6HR MAX TEMP:  74; 6HR PCP:  0.20;

STUTTGART      CLOUDY    73  66  78 S18       29.88F
6HR MIN TEMP:  73; 6HR MAX TEMP:  75; 6HR PCP:  0.21;

MONTICELLO     PTSUNNY   78  72  81 S9        29.88F
6HR MIN TEMP:  72; 6HR MAX TEMP:  78; 6HR PCP:  0.82;


$$






USA.gov is the U.S. government's official web portal to all federal, state and local government web resources and services.